Weather History for Port Weller, ON

Change the Weather History Date:

Thursday, September 13, 2012

  Actual Average Record
Temperature  
Mean Temperature 24 °C -  
Max Temperature 29 °C - - ()
Min Temperature 19 °C - - ()
Cooling Degree Days 10    
Growing Degree Days 25 (Base 50)    
Moisture  
Dew Point 15 °C    
Average Humidity 57    
Maximum Humidity 81    
Minimum Humidity 34    
Precipitation  
Precipitation 0.0 mm - - ()
Sea Level Pressure  
Sea Level Pressure 1023.06 hPa    
Wind  
Wind Speed 12 km/h ()    
Max Wind Speed 22 km/h    
Max Gust Speed -    
T = Trace of Precipitation, MM = Missing Value Source: Averaged Metar Reports

Daily Weather History Graph

Daily Weather History Graph

Search for Another Location

Airport:

Trip Planner

Search our weather history database for the weather conditions in past years. The results will help you decide how hot, cold, wet, or windy it might be!

Date:

Astronomy

Sep. 13, 2012 Rise Set
Actual Time 6:54 AM EDT 7:29 PM EDT
Civil Twilight 6:26 AM EDT 7:58 PM EDT
Nautical Twilight 5:52 AM EDT 8:32 PM EDT
Astronomical Twilight 5:16 AM EDT 9:07 PM EDT
Moon 4:09 AM EDT (9/13) 5:53 PM EDT (9/13)
Length of Visible Light 13h 32m
Length of Day
12h 34m
Waning Crescent, 7% of the Moon is Illuminated
Sep 13
Waning Crescent
Sep 15
New
Sep 22
First Quarter
Sep 29
Full
Oct 8
Last Quarter

Hourly Weather History & Observations

Time (EDT) Temp. Heat Index Dew Point Humidity Pressure Visibility Wind Dir Wind Speed Gust Speed Precip Events Conditions
12:00 AM 19.9 °C - 16.5 °C 81% 1023.7 hPa - South 9.3 km/h / 2.6 m/s - N/A   Unknown
1:00 AM 20.3 °C - 16.3 °C 78% 1023.5 hPa - South 11.1 km/h / 3.1 m/s - N/A   Unknown
2:00 AM 21 °C - 15 °C 60% 1024 hPa - South 16.7 km/h /   - -  
2:00 AM 20.7 °C - 14.6 °C 68% 1023.5 hPa - South 16.7 km/h / 4.6 m/s - N/A   Unknown
3:00 AM 20.3 °C - 14.9 °C 71% 1023.4 hPa - South 18.5 km/h / 5.1 m/s - N/A   Unknown
4:00 AM 20.1 °C - 14.6 °C 71% 1023.2 hPa - South 16.7 km/h / 4.6 m/s - N/A   Unknown
5:00 AM 20 °C - 15 °C 61% 1023 hPa - South 14.8 km/h /   - -  
5:00 AM 20.5 °C - 14.8 °C 70% 1023.3 hPa - South 14.8 km/h / 4.1 m/s - N/A   Unknown
6:00 AM 20.1 °C - 15.8 °C 76% 1023.4 hPa - South 18.5 km/h / 5.1 m/s - N/A   Unknown
7:00 AM 20.6 °C - 15.3 °C 72% 1023.7 hPa - South 20.4 km/h / 5.7 m/s - N/A   Unknown
8:00 AM 22 °C - 15 °C 58% 1024 hPa - South 22.2 km/h /   - -  
8:00 AM 21.5 °C - 15.2 °C 67% 1024.0 hPa - South 22.2 km/h / 6.2 m/s - N/A   Unknown
9:00 AM 23.0 °C - 15.6 °C 63% 1024.1 hPa - South 16.7 km/h / 4.6 m/s - N/A   Unknown
10:00 AM 24.1 °C - 16.6 °C 63% 1024.7 hPa - SSW 5.6 km/h / 1.5 m/s - N/A   Unknown
11:00 AM 25 °C - 17 °C 51% 1025 hPa - SW 5.6 km/h /   - -  
11:00 AM 24.8 °C - 16.9 °C 61% 1024.7 hPa - SW 5.6 km/h / 1.5 m/s - N/A   Unknown
12:00 PM 26.8 °C 27.6 °C 17.3 °C 56% 1024.4 hPa - South 9.3 km/h / 2.6 m/s - N/A   Unknown
1:00 PM 27.9 °C 28.2 °C 15.8 °C 48% 1023.9 hPa - SSW 5.6 km/h / 1.5 m/s - N/A   Unknown
2:00 PM 28 °C - 16 °C 37% 1023 hPa - SSW 9.3 km/h /   - -  
2:00 PM 28.3 °C 28.5 °C 15.9 °C 47% 1023.2 hPa - SSW 9.3 km/h / 2.6 m/s - N/A   Unknown
3:00 PM 28.4 °C 28.3 °C 15.1 °C 44% 1022.5 hPa - SSW 9.3 km/h / 2.6 m/s - N/A   Unknown
4:00 PM 28.1 °C 27.9 °C 13.9 °C 42% 1022.1 hPa - SSW 9.3 km/h / 2.6 m/s - N/A   Unknown
5:00 PM 27 °C - 14 °C 34% 1022 hPa - SSW 11.1 km/h /   - -  
5:00 PM 27.4 °C 27.4 °C 14.2 °C 44% 1021.8 hPa - SSW 11.1 km/h / 3.1 m/s - N/A   Unknown
6:00 PM 26.7 °C 27.0 °C 14.5 °C 47% 1021.7 hPa - SSW 11.1 km/h / 3.1 m/s - N/A   Unknown
8:00 PM 25 °C - 14 °C 43% 1022 hPa - South 13.0 km/h /   - -  
8:00 PM 24.6 °C - 14.3 °C 53% 1021.6 hPa - South 13.0 km/h / 3.6 m/s - N/A   Unknown
9:00 PM 24.0 °C - 14.4 °C 55% 1021.6 hPa - South 11.1 km/h / 3.1 m/s - N/A   Unknown
10:00 PM 23.6 °C - 14.7 °C 57% 1021.5 hPa - SSW 7.4 km/h / 2.1 m/s - N/A   Unknown
11:00 PM 23 °C - 14 °C 46% 1021 hPa - South 7.4 km/h /   - -  
11:00 PM 22.7 °C - 13.5 °C 56% 1021.4 hPa - South 7.4 km/h / 2.1 m/s - N/A   Unknown